Location: Peebles
(55.6412°N, 3.1714°W)
Time: 22:06:22
(UTC+01:00)

deb Kosmos-2123 - Pass Details

Date: 10 July 2022
Orbit: 942 x 985 km, 82.9° (Epoch: 17 August)

Event Time Altitude Azimuth Distance (km) Brightness Sun altitude
Exits shadow 03:16:05 - 246° (WSW) 3,519 ? -8.2°
Reaches altitude 10° 03:18:50 10° 260° (W) 2,736 ? -8.0°
Maximum altitude 03:23:20 20° 307° (NW) 2,083 ? -7.7°
Drops below altitude 10° 03:27:51 10° 353° (N) 2,728 ? -7.4°
Sets 03:31:07 0° 10° (N) 3,671 ? -7.1°
